Vertical_Velocity
-1 -1 0 2 -1 -4 -1 0 0 -0 -0 -1 0 2 -2 0 10 7 6 2 -1 -0 3 -0 1 2 -4 -20 34 -11 9 8 -0 4 1 7 -4 7 2 7 -3 -10 7 2 11 -0 -2
-0 -0 -1 -2 -3 1 -3 -1 1 2 -2 -3 -2 1 6 4 9 -7 -3 10 6 1 1 -0 2 -4 -14 -65 43 1 7 3 10 -0 3 -7 5 14 -3 -4 -9 11 -1 -0 2 6 -5
0 -1 -0 -1 0 3 1 1 0 -2 1 -2 -1 -1 3 3 2 5 2 6 2 14 11 -0 9 -3 -20 46 16 8 5 13 14 15 -2 11 2 -2 24 8 10 6 -3 -2 -7 7 3
2 -1 -3 -3 -2 -4 -0 4 1 6 -1 -3 -0 -1 -1 1 5 -1 3 5 1 8 4 13 2 -3 -42 10 32 7 17 11 6 9 9 5 -1 -6 -9 2 -1 -5 -4 -13 11 3 -1
-3 -3 1 1 -1 2 1 0 -1 -1 -3 -1 0 1 0 9 5 0 1 3 9 14 13 13 10 -4 -6 -13 9 8 0 1 -4 -0 11 11 -3 8 -4 -1 -3 -9 -16 -4 21 4 2
1 0 1 -1 0 -1 -3 -4 -3 4 4 2 3 -3 -3 -3 -3 -2 3 -2 2 4 5 9 13 7 15 1 6 21 14 13 8 17 6 -13 -7 -8 -3 -26 -56 0 4 -3 3 3 3
-0 2 -1 0 5 1 1 -4 -1 -3 -3 -6 3 -0 6 3 -2 -5 1 5 8 31 11 -1 10 -18 10 7 -18 -1 22 6 10 5 -34 2 -7 -62 28 28 13 15 -1 11 4 6 2
-0 -1 -1 -1 -4 -1 -1 -2 -1 -3 -5 -8 -5 -5 -4 -0 -8 -8 -14 -21 -23 -22 8 -5 13 7 3 15 7 16 -17 5 -1 -10 37 0 -56 27 10 11 4 5 3 -4 -5 2 -3
-2 -5 -0 -2 -1 -4 -2 0 -3 -5 -8 -6 -8 -4 -6 -0 -2 -8 -12 -11 -9 -10 -1 -4 15 5 8 2 5 52 -10 7 12 8 -3 -17 22 13 4 -0 -17 -2 -30 18 22 19 8
1 0 1 -3 -1 -1 -3 -4 -5 -4 -12 -4 -8 -4 -12 -1 2 -1 -11 -8 -5 -8 -3 1 2 9 6 4 12 17 3 4 21 -8 27 -1 26 8 6 -16 12 -11 57 29 2 7 -23
-4 -2 -1 1 -1 -0 -4 -6 -7 -6 -5 -13 -2 -2 -11 -24 -17 -10 -8 -6 -8 -7 -3 1 9 2 3 4 1 10 6 1 7 18 -4 -25 16 3 -14 20 14 36 30 -4 12 11 14
1 2 1 -1 -3 -2 -2 -3 -6 -3 -12 -13 -5 -6 1 6 -11 -13 -9 -6 -6 -7 -6 1 1 -3 -1 -0 11 -0 -1 -3 8 18 4 14 20 -3 -2 31 18 25 14 14 12 14 -22
-2 0 -2 -4 1 -4 -0 -3 -1 -6 -4 -12 -8 -10 -11 -13 -6 -4 -6 -5 -5 -11 9 -4 -3 -2 0 -7 3 -0 10 14 2 -2 -10 10 1 18 32 3 14 -2 11 -1 -2 -14 -126
-2 -1 -3 -0 -2 -6 -5 1 -1 -5 -3 -7 -12 -8 -9 -8 -5 -6 -6 -1 -4 7 2 8 -4 1 -6 -5 -4 -1 1 17 7 7 6 5 7 -17 -0 -13 10 18 29 7 -8 -25 -8
-1 -1 -1 -5 -5 -5 -6 -3 -0 1 -3 8 -8 0 -0 -2 -1 -4 -5 -3 -5 -3 -3 -11 12 10 0 1 -3 3 3 11 11 9 17 7 -14 6 3 6 11 -23 -21 11 20 -2 -4
-3 -4 -3 -2 -3 -4 -3 -5 -3 -0 -4 -4 -3 -3 -1 1 -4 -5 -7 -2 1 -5 1 1 -7 -6 -7 -1 1 4 8 8 -0 13 4 21 -6 5 6 10 14 5 14 5 8 -10 -32
-2 -3 -4 -5 -3 -3 -5 -5 -2 3 -3 12 -5 -0 -1 -1 1 9 -8 -3 1 -0 -3 -2 -4 -5 4 -7 3 -1 4 -10 -5 5 -0 6 -11 9 8 1 -2 -13 -4 -21 -12 -7 -28
-3 -5 -4 -5 -2 -3 -5 -4 -7 -8 4 12 0 -7 -9 2 -1 -10 -9 -13 0 5 2 0 -1 3 -3 -6 0 4 -1 -7 -4 -3 0 7 -6 3 2 7 -1 1 4 5 24 -29 -25
2 -2 -1 -3 -5 -6 -4 -7 -4 -4 -14 -12 -6 8 2 -5 -19 -14 2 -5 -7 5 -4 1 -4 -3 -1 -0 -10 -2 -2 4 -4 -7 -0 -6 18 -8 5 6 2 -9 2 -13 -1 15 -19
-2 -3 -4 -2 -4 -2 -2 -4 -4 -1 -8 -6 -1 -9 1 1 -3 -9 0 -4 -1 -1 -1 -1 2 1 -3 6 11 2 1 -0 -4 1 -0 -4 3 7 7 1 -0 9 6 -2 -0 21 -30
-3 -3 -1 -5 -2 -2 -4 -4 -0 -1 -1 -9 -9 2 3 -11 -5 -3 1 -6 -5 -13 -1 -9 9 1 -8 -10 8 1 3 4 -1 -5 -8 -3 2 -2 2 9 10 3 12 -1 -1 -13 -5
-1 -1 -2 -2 -3 -2 -3 -10 7 2 1 11 -2 -17 -3 5 -2 -0 1 -4 -4 5 -11 -1 -1 8 4 -6 -9 -2 4 4 2 -4 -5 -5 -4 -9 3 5 9 -1 19 9 19 23 11
-1 -1 -2 -4 -6 -3 -6 -4 -2 -10 -9 -18 -9 6 1 0 -1 -1 -2 -5 -2 -5 7 -7 -4 -2 4 4 -1 1 2 10 12 7 -1 3 -3 -2 11 -16 -4 6 -2 12 20 20 6
-3 -2 -2 -2 -4 -1 1 -3 -2 0 -8 -6 -8 2 2 -3 -6 -4 3 -4 0 1 -9 -2 -5 -4 -2 1 -1 4 5 19 10 1 -2 -6 -17 -2 9 9 32 -5 -3 15 -3 7 10
-3 1 0 -2 -2 -2 -5 -4 -3 -0 9 2 2 -3 -4 3 -1 4 -1 -2 2 15 5 4 2 -3 -3 -4 -4 1 11 13 4 5 7 2 7 -3 7 13 14 7 -2 -0 -9 -8 -10
-1 -2 -2 -4 -5 -3 -3 -3 -3 2 -0 -0 1 3 2 -3 -4 -2 -2 -1 -10 -3 1 -2 0 -2 -3 -5 -6 -4 2 -0 4 1 10 -4 2 -5 8 7 12 15 17 10 -1 -3 14
-3 -2 2 2 -1 -2 -1 -0 -3 -3 2 -2 -8 1 2 2 3 -6 -6 -5 -3 2 -0 -0 -1 3 -1 -2 -5 -4 1 -2 -2 4 8 8 -3 1 2 0 3 12 20 15 32 6 5
0 -1 -2 -1 -5 -6 -2 -2 -2 -1 -4 -0 -3 -3 -8 7 1 -3 -0 -1 -1 -2 -6 -1 4 3 5 -7 -4 -5 -3 0 0 1 2 6 8 0 10 9 10 11 12 14 2 -2 8
-1 -1 -1 -2 -1 -1 -2 -2 -1 2 -2 -1 6 4 0 -7 -2 -1 -3 -2 -0 -4 -4 -0 -1 -4 -6 -3 -10 -7 -6 -4 -0 -1 -8 -2 7 1 6 4 7 8 9 1 -1 1 3
Height
5808 5802 5797 5790 5783 5777 5772 5766 5759 5751 5743 5734 5726 5719 5712 5706 5699 5692 5685 5680 5675 5669 5666 5662 5657 5655 5653 5653 5659 5674 5673 5673 5669 5667 5668 5671 5672 5674 5673 5680 5679 5677 5693 5695 5699 5699 5703
5803 5796 5789 5782 5778 5772 5767 5759 5750 5742 5733 5726 5718 5712 5705 5697 5688 5678 5671 5665 5660 5654 5648 5642 5639 5635 5633 5634 5652 5659 5656 5658 5657 5655 5658 5659 5662 5668 5669 5669 5667 5675 5677 5684 5687 5692 5694
5796 5790 5784 5780 5773 5767 5759 5750 5741 5733 5725 5717 5709 5702 5693 5684 5675 5664 5655 5648 5641 5635 5629 5622 5617 5612 5613 5621 5629 5638 5635 5642 5643 5643 5645 5651 5655 5653 5662 5660 5665 5666 5666 5668 5674 5684 5687
5793 5787 5781 5774 5766 5758 5749 5741 5733 5725 5715 5707 5698 5691 5681 5671 5660 5648 5638 5629 5621 5614 5608 5601 5596 5589 5596 5601 5607 5614 5616 5618 5622 5627 5630 5636 5636 5638 5639 5647 5649 5652 5655 5656 5667 5674 5680
5788 5781 5772 5764 5757 5750 5743 5733 5724 5715 5708 5697 5688 5677 5666 5654 5641 5627 5616 5607 5597 5589 5580 5574 5569 5564 5572 5575 5575 5582 5586 5591 5596 5605 5612 5616 5616 5619 5627 5629 5633 5634 5641 5648 5664 5664 5671
5781 5773 5765 5759 5752 5744 5733 5724 5716 5708 5697 5688 5676 5662 5647 5633 5617 5602 5589 5579 5570 5559 5548 5541 5534 5533 5542 5543 5547 5550 5561 5568 5574 5582 5588 5593 5594 5597 5602 5604 5601 5622 5631 5639 5647 5656 5659
5777 5768 5762 5754 5745 5736 5727 5719 5708 5698 5687 5674 5659 5644 5628 5609 5591 5572 5559 5547 5537 5530 5516 5503 5493 5491 5506 5505 5509 5523 5532 5541 5549 5556 5563 5575 5572 5570 5587 5596 5608 5618 5626 5635 5640 5646 5652
5772 5763 5755 5747 5739 5728 5720 5709 5697 5686 5673 5660 5644 5624 5606 5584 5563 5543 5524 5505 5488 5477 5476 5464 5461 5458 5459 5468 5481 5496 5502 5512 5524 5537 5550 5543 5542 5578 5589 5589 5598 5607 5613 5620 5629 5636 5639
5765 5758 5751 5741 5731 5722 5710 5698 5687 5674 5661 5646 5626 5605 5584 5562 5540 5518 5497 5480 5462 5451 5444 5438 5432 5430 5434 5437 5457 5473 5471 5485 5493 5509 5517 5525 5556 5564 5568 5573 5581 5591 5597 5605 5616 5624 5627
5760 5753 5743 5733 5724 5712 5704 5692 5679 5665 5649 5633 5610 5586 5564 5546 5525 5500 5479 5462 5447 5433 5431 5428 5421 5421 5422 5422 5436 5441 5450 5460 5467 5489 5499 5505 5534 5543 5546 5553 5570 5578 5592 5597 5599 5607 5612
5756 5747 5737 5728 5718 5709 5697 5684 5669 5653 5638 5620 5594 5568 5545 5521 5504 5484 5466 5450 5438 5429 5424 5423 5419 5416 5416 5419 5420 5427 5426 5440 5449 5466 5476 5497 5514 5515 5522 5543 5554 5567 5571 5576 5584 5589 5596
5750 5742 5733 5723 5713 5701 5687 5673 5658 5642 5624 5604 5580 5555 5533 5512 5489 5472 5456 5444 5434 5429 5422 5421 5417 5414 5414 5413 5414 5418 5419 5426 5436 5448 5457 5482 5494 5499 5521 5523 5537 5545 5553 5561 5567 5572 5571
5744 5735 5725 5716 5703 5692 5678 5663 5649 5632 5611 5587 5562 5539 5520 5499 5483 5466 5451 5442 5437 5428 5426 5419 5416 5413 5411 5410 5410 5414 5421 5427 5427 5430 5439 5462 5469 5485 5494 5501 5514 5526 5539 5543 5547 5549 5564
5739 5730 5721 5710 5697 5684 5672 5657 5642 5624 5602 5575 5549 5527 5508 5492 5474 5460 5448 5439 5436 5431 5425 5421 5414 5412 5408 5407 5412 5412 5420 5423 5422 5424 5432 5443 5450 5464 5482 5489 5503 5510 5516 5524 5534 5541 5559
5734 5724 5715 5703 5691 5679 5666 5651 5635 5614 5593 5571 5546 5523 5504 5489 5472 5458 5445 5434 5430 5427 5422 5418 5417 5411 5408 5406 5406 5410 5412 5413 5414 5417 5424 5432 5438 5453 5466 5482 5491 5497 5496 5527 5525 5529 5535
5730 5721 5709 5697 5686 5673 5657 5644 5627 5608 5586 5562 5542 5519 5501 5486 5469 5453 5442 5433 5429 5425 5423 5419 5413 5409 5404 5404 5404 5403 5402 5401 5408 5413 5415 5424 5428 5437 5452 5465 5475 5481 5508 5503 5507 5514 5525
5725 5715 5703 5692 5679 5665 5653 5637 5621 5604 5582 5558 5536 5517 5496 5483 5469 5456 5437 5431 5428 5425 5422 5418 5414 5409 5405 5400 5399 5398 5397 5400 5404 5408 5413 5416 5422 5435 5441 5444 5458 5471 5480 5487 5505 5508 5518
5719 5708 5696 5685 5671 5659 5644 5630 5615 5600 5582 5557 5533 5510 5493 5481 5467 5451 5437 5429 5429 5425 5421 5417 5413 5408 5404 5397 5394 5394 5396 5396 5397 5402 5410 5414 5418 5426 5434 5442 5451 5462 5472 5482 5488 5496 5505
5712 5702 5689 5677 5665 5652 5637 5622 5606 5587 5566 5547 5530 5514 5491 5473 5459 5446 5439 5432 5427 5425 5421 5418 5412 5407 5403 5397 5388 5389 5391 5393 5395 5398 5404 5412 5415 5421 5432 5440 5446 5449 5459 5467 5478 5495 5498
5708 5697 5685 5672 5660 5645 5631 5616 5599 5581 5560 5540 5519 5504 5490 5474 5461 5447 5437 5433 5429 5424 5421 5417 5412 5406 5400 5396 5391 5383 5386 5391 5394 5396 5400 5407 5413 5418 5426 5433 5438 5444 5451 5459 5467 5474 5490
5704 5691 5680 5668 5654 5638 5625 5611 5594 5575 5554 5534 5515 5501 5484 5473 5464 5451 5439 5432 5429 5425 5421 5416 5413 5405 5396 5387 5385 5382 5383 5388 5393 5396 5398 5403 5411 5415 5421 5429 5432 5441 5446 5451 5456 5469 5474
5697 5685 5674 5660 5647 5634 5619 5607 5594 5569 5552 5535 5513 5496 5486 5476 5464 5454 5444 5436 5430 5426 5419 5416 5410 5405 5398 5389 5382 5379 5382 5389 5392 5394 5396 5402 5409 5415 5423 5427 5431 5439 5443 5447 5454 5462 5465
5691 5680 5668 5655 5643 5628 5615 5600 5582 5565 5545 5530 5515 5500 5485 5475 5464 5456 5446 5438 5432 5426 5422 5415 5409 5401 5396 5390 5384 5381 5384 5389 5392 5392 5394 5399 5404 5414 5421 5424 5430 5433 5431 5438 5442 5444 5456
5685 5674 5663 5651 5637 5624 5609 5594 5579 5561 5542 5523 5509 5495 5483 5475 5467 5458 5449 5440 5436 5428 5421 5416 5409 5402 5395 5390 5387 5386 5387 5390 5390 5390 5391 5396 5408 5412 5416 5420 5422 5420 5425 5427 5430 5437 5442
5679 5668 5657 5645 5631 5618 5604 5591 5576 5561 5544 5525 5510 5497 5484 5477 5467 5461 5451 5444 5438 5432 5425 5419 5413 5405 5396 5391 5389 5387 5389 5390 5390 5390 5390 5397 5404 5406 5411 5409 5406 5408 5414 5419 5426 5433 5436
5675 5664 5652 5640 5627 5614 5601 5588 5574 5559 5544 5528 5511 5498 5484 5475 5468 5460 5453 5446 5440 5433 5427 5421 5415 5408 5400 5393 5391 5391 5391 5392 5392 5392 5392 5394 5398 5405 5406 5407 5406 5404 5407 5409 5416 5426 5429
5669 5658 5646 5635 5624 5611 5598 5584 5571 5557 5542 5527 5513 5499 5487 5477 5468 5461 5454 5448 5442 5435 5429 5424 5419 5413 5406 5399 5395 5394 5394 5394 5394 5393 5394 5394 5398 5400 5402 5404 5404 5402 5402 5406 5410 5417 5422
5663 5653 5642 5630 5618 5606 5593 5580 5567 5553 5540 5526 5511 5498 5487 5476 5468 5460 5455 5448 5443 5437 5432 5427 5422 5416 5411 5404 5400 5397 5397 5396 5394 5393 5393 5394 5395 5399 5401 5403 5402 5400 5400 5403 5405 5409 5415
5657 5647 5636 5625 5613 5601 5589 5576 5563 5551 5537 5523 5510 5497 5485 5474 5466 5460 5455 5448 5442 5437 5432 5428 5423 5416 5411 5407 5404 5401 5399 5398 5396 5394 5394 5395 5393 5395 5397 5396 5394 5396 5398 5401 5403 5408 5411